Regional Weather Roundup
Issued by NWS Nashville, TN

Home | Current Version | Previous Version | Text Only | Print | Product List | Glossary On
Versions: 1 2 3 4 5 6 7 8 9 10 11 12 13 14 15 16 17 18 19 20 21 22 23 24 25 26 27 28 29 30 31 32 33 34 35 36 37 38 39 40 41 42 43 44 45 46 47 48 49 50
000
ASUS44 KOHX 040610
RWROHX
MIDDLE TENNESSEE HOURLY WEATHER ROUNDUP
NATIONAL WEATHER SERVICE NASHVILLE TN
100 AM CDT FRI SEP 04 2015

NOTE: "FAIR" INDICATES FEW OR NO CLOUDS BELOW 12,000 FEET WITH
NO SIGNIFICANT WEATHER AND/OR OBSTRUCTIONS TO VISIBILITY.

* THESE REPORTS ARE NOT UNDER NWS QUALITY CONTROL AND MAY NOT
  REPORT WEATHER SUCH AS PRECIPITATION AND FOG.


TNZ005>011-023>034-057-059-062>066-078-080-040700
...NORTHERN MIDDLE TENNESSEE...

CITY           SKY/WX    TMP DP  RH WIND       PRES   REMARKS
CLARKSVILLE    PTCLDY    70  67  90 CALM      29.98R
CROSSVILLE     CLEAR     68  65  90 CALM      30.05F FOG
DICKSON        CLEAR     70  70 100 CALM      29.98S
NASHVILLE      PTCLDY    76  67  73 CALM      29.98S
SMYRNA         PTCLDY    72  69  90 CALM      29.98S
$$
TNZ056-058-060-061-075>077-079-093>097-040700
...SOUTHERN MIDDLE TENNESSEE...

CITY           SKY/WX    TMP DP  RH WIND       PRES   REMARKS
COLUMBIA       CLEAR    N/A N/A N/A S3        29.97S
LEWISBURG      PTCLDY    71  68  90 CALM      29.98S
MCMINNVILLE    PTCLDY    70  70 100 CALM      30.00S
SHELBYVILLE    CLEAR     72  72 100 CALM      29.99F
TULLAHOMA      CLEAR     70  66  88 CALM      30.01S
WINCHESTER     CLEAR     68  68 100 CALM      30.00S
$$


...KEY TO REMARKS...
VSB - VISIBILITY IN MILES
WCI - WIND CHILL INDEX
HX  - HEAT INDEX



USA.gov is the U.S. government's official web portal to all federal, state and local government web resources and services.